Cloud_Cover
0 4 29 15 2 0 0 0 0 0 0 0 0 0 0 0 0 0 0 0 0 0 0 0 0 0 0 0 0 0 0 0
1 0 1 13 12 5 0 0 0 0 0 0 0 6 0 0 0 0 0 0 0 0 0 0 0 0 0 0 0 0 0 1
2 0 0 0 0 7 32 5 1 9 0 0 68 0 0 0 0 0 0 0 0 0 0 0 0 0 0 0 0 0 0 67
4 12 3 0 0 1 0 0 0 0 0 0 0 2 0 0 0 0 0 0 0 0 0 0 0 0 0 0 0 0 0 81
51 5 5 5 3 4 0 0 0 0 0 0 0 0 0 0 0 0 0 0 0 0 0 0 0 0 0 0 0 0 0 0
32 40 17 9 8 1 0 0 0 0 0 0 0 0 0 0 3 1 0 0 0 0 0 0 0 0 0 0 0 0 0 0
5 53 100 84 67 90 4 0 0 0 0 0 0 2 0 0 0 1 3 0 0 0 0 0 0 0 0 0 0 0 0 0
12 0 20 13 10 20 99 8 5 5 3 0 0 0 0 0 0 0 3 3 0 0 0 0 0 0 0 0 0 0 0 0
99 49 0 93 28 5 49 100 31 14 5 3 4 0 0 0 0 0 0 3 5 0 3 0 0 3 4 4 4 1 0 0
36 97 83 38 56 42 39 32 83 85 20 13 5 0 5 5 0 0 0 0 0 0 0 0 0 0 0 5 5 5 5 5
8 9 99 100 100 72 39 95 30 98 99 12 18 5 5 4 5 4 1 0 0 0 3 4 4 4 3 0 0 0 5 5
83 25 45 100 100 100 100 93 98 70 20 72 76 20 5 16 0 0 1 0 0 0 0 0 1 2 5 5 0 5 5 5
87 49 88 92 100 100 100 100 100 100 100 35 35 100 86 11 5 3 0 0 0 0 0 0 0 0 0 2 0 5 5 5
97 47 45 59 41 95 100 100 99 100 100 100 100 55 93 100 29 5 5 0 0 0 0 0 0 0 0 0 2 0 5 0
54 5 2 6 10 24 84 97 100 95 72 100 100 100 100 43 41 96 30 5 5 0 1 2 0 0 0 0 0 1 0 5
100 100 88 56 14 6 5 5 6 61 100 42 65 72 100 100 100 45 38 14 5 5 5 5 0 0 0 0 0 0 0 4
44 21 4 5 5 2 2 5 5 5 58 99 100 100 100 100 100 100 99 92 10 37 30 5 2 5 0 0 0 2 5 5
8 7 5 3 5 4 68 9 0 0 0 21 100 84 97 98 97 62 100 100 58 34 58 19 100 95 51 18 1 0 4 2
4 0 2 3 4 0 0 4 5 0 0 21 0 41 100 100 100 100 100 100 100 100 87 91 100 100 100 100 100 73 3 4
0 0 0 0 0 0 0 0 0 0 4 9 98 91 30 100 100 93 94 100 99 100 99 100 96 100 100 100 100 100 100 100